Location: *
(34.0486°S, 61.7880°E)
Time: 19:51:20
(UTC+00:00)

Nadezhda 1 Rocket - Pass Details

Date: 01 April 2020
Orbit: 940 x 1006 km, 83.0° (Epoch: 27 May)

Event Time Altitude Azimuth Distance (km) Brightness Sun altitude
Rises 15:35:58 0° 185° (S) 3,695 7.2 -23.2°
Reaches altitude 10° 15:38:29 10° 183° (S) 2,751 6.5 -23.8°
Maximum altitude 15:44:49 78° 96° (E) 1,019 3.9 -25.1°
Enters shadow 15:48:03 31° 14° (NNE) 1,661 4.9 -25.7°
